Location: Be?i?
(36.9044°N, 30.1006°E)
Time: 12:04:50
(UTC+00:00)

Meteor 2-19 Rocket - Pass Details

Date: 05 August 2024
Orbit: 935 x 959 km, 82.5° (Epoch: 09 September)

Event Time Altitude Azimuth Distance (km) Brightness Sun altitude
Rises 19:19:16 0° 350° (N) 3,620 8.3 -23.6°
Reaches altitude 10° 19:21:46 10° 349° (N) 2,668 7.5 -24.0°
Maximum altitude 19:27:51 75° 266° (W) 972 4.5 -24.8°
Enters shadow 19:29:50 44° 191° (SSW) 1,267 4.8 -25.1°
